{"data":{"norad_id":62733,"epoch":"2026-05-25T04:09:57.943584Z","epoch_age_seconds":56701,"freshness":"FRESH","line1":"1 62733U 25013E   26145.17358731  .00002809  00000+0  17241-3 0  9991","line2":"2 62733  97.6551 314.5170 0010115  96.7559 263.4822 15.10907681 73742","mean_motion":15.10907681,"eccentricity":0.0010115,"inclination_deg":97.6551,"raan_deg":314.517,"arg_perigee_deg":96.7559,"mean_anomaly_deg":263.4822,"bstar":0.00017241,"rev_number":7374,"period_min":95.306948141724,"perigee_km":526.4394734122,"apogee_km":540.42157451318,"semimajor_km":6911.5675239627,"source":"CELESTRAK","updated_at":"2026-05-25T13:38:03.211988Z"}}